Regional Weather Roundup
Issued by NWS

Current Version | Previous Version | Text Only | Print | Product List | Glossary On
Versions: 1 2 3 4 5 6 7 8 9 10 11 12 13 14 15 16 17 18 19 20 21 22 23 24 25 26 27 28 29 30 31 32 33 34 35 36 37 38 39 40 41 42 43 44 45 46 47 48 49 50
000
ASUS46 KSTO 221615
RWRCA

NORTHERN AND CENTRAL CA REGIONAL WEATHER ROUNDUP
NATIONAL WEATHER SERVICE SACRAMENTO CA
900 AM PDT MON OCT 22 2018

NOTE: FAIR INDICATES FEW OR NO CLOUDS BELOW 12,000 FEET WITH NO
SIGNIFICANT WEATHER AND/OR OBSTRUCTIONS TO VISIBILITY.

CAZ001-003-221700-
NORTHWEST AREA

CITY           SKY/WX    TMP DP  RH WIND       PRES   REMARKS
CRESCENT CITY  CLOUDY    48  46  93 SE3       29.99R
UKIAH          SUNNY     47  41  80 CALM      29.98R
$$

CAZ006-505>513-221700-
BAY AREA

CITY           SKY/WX    TMP DP  RH WIND       PRES   REMARKS
SANTA ROSA     CLOUDY    49  49 100 W3        29.98R FOG
SAN RAFAEL     N/A       51  MM  MM MISG
NAPA           FOG       50  49  96 N3        29.99R VSB 1
CONCORD        MOSUNNY   56  48  74 W6        29.97R
OAKLAND CITY   N/A       56  MM  MM MISG
OAKLAND        CLOUDY    56  50  80 NW6       29.99R
SAN FRAN CITY  N/A       54  MM  82 MISG
SAN FRAN ARPT  CLOUDY    56  49  77 W5        29.98R
LIVERMORE      CLOUDY    53  49  86 CALM      29.97R
HAYWARD        CLOUDY    57  49  74 NW5       29.98R
REDWOOD CITY   N/A       54  MM  85 MISG
MOFFETT ARPT   CLOUDY    55  52  89 CALM      29.99R
SAN JOSE ARPT  CLOUDY    56  50  80 N5        29.98R
$$
CAZ034-037-514>518-221700-
CENTRAL COAST

CITY           SKY/WX    TMP DP  RH WIND       PRES   REMARKS
WATSONVILLE    CLOUDY    52  52 100 CALM      29.98R FOG
SALINAS        CLOUDY    54  51  90 S3        29.98R
MONTEREY       CLOUDY    56  50  80 CALM      29.98R
SAN LUIS OBISP CLOUDY    57  52  83 NW9       29.96R
SANTA MARIA    CLOUDY    56  53  90 CALM      29.96R FOG
$$
CAZ015-016-221700-
NORTHERN SACRAMENTO VALLEY

CITY           SKY/WX    TMP DP  RH WIND       PRES   REMARKS
REDDING        SUNNY     52  39  61 CALM      29.95R
RED BLUFF      SUNNY     56  37  49 N5        29.95R
OROVILLE       SUNNY     58  40  51 E3        29.96R
$$
CAZ016>018-221700-
SOUTHERN SACRAMENTO VALLEY

CITY           SKY/WX    TMP DP  RH WIND       PRES   REMARKS
AUBURN         SUNNY     63  30  29 E5        29.96R
BEALE AFB      SUNNY     56  45  64 CALM      29.93R
LINCOLN        FAIR      50  37  62 CALM      29.94R
MARYSVILLE     SUNNY     54  46  74 CALM      29.96R
SAC INTL ARPT  SUNNY     50  49  96 NE3       29.94R
MATHER AIRPORT SUNNY     52  48  87 SE5       29.94R
DOWNTOWN SAC   N/A       55  MM  MM MISG
SAC EXEC ARPT  SUNNY     52  48  86 CALM      29.95R
VACAVILLE      SUNNY     56  49  77 CALM      29.96R
TRAVIS AFB     SUNNY     54  49  83 SW10      29.96R
$$
CAZ019>021-221700-
SAN JOAQUIN VALLEY

CITY           SKY/WX    TMP DP  RH WIND       PRES   REMARKS
STOCKTON       SUNNY     57  52  83 NW7       29.94R
MODESTO        SUNNY     56  51  84 NW12      29.94R
MERCED         SUNNY     55  47  74 NW6       29.93R
LEMOORE        SUNNY     57  41  55 CALM      29.94R
FRESNO         SUNNY     59  44  57 E3        29.94R
HANFORD        SUNNY     58  46  64 NW3       29.95R
PORTERVILLE    SUNNY     59  44  57 CALM      29.97R
BAKERSFIELD    SUNNY     67  39  35 SE5       29.95R
$$
CAZ011-012-071-221700-
NORTHERN MOUNTAINS

CITY           SKY/WX    TMP DP  RH WIND       PRES   REMARKS
YREKA          SUNNY     40  26  57 S3        30.05R
MOUNT SHASTA   SUNNY     42  29  59 CALM      30.04R
ALTURAS        SUNNY     34  27  75 CALM      30.09R
$$
CAZ011-012-071-221700-
SIERRA NEVADA MTNS

CITY           SKY/WX    TMP DP  RH WIND       PRES   REMARKS
BLUE CANYON    SUNNY     57  21  24 N6        30.11R
TRUCKEE        SUNNY     32  25  74 CALM      30.15R
TAHOE VLY ARPT SUNNY     33  26  75 S5        30.14R WCI  29
MAMMOTH LAKES  FAIR      37  24  59 CALM      30.17S
$$



USA.gov is the U.S. government's official web portal to all federal, state and local government web resources and services.